Home   Weather   Pullman   Past weeks

Flag for USA Past Weather in Pullman, Washington, USA — Yesterday and Last 2 Weeks

Now
57 °F

Passing clouds.


Feels Like: 54 °F
Forecast: 44 / 60 °F
Wind: 15 mph from West

Location: Pullman / Moscow Regional Airport

Current Time: Oct 1, 2016 at 1:43:22 AM

Latest Report: Oct 1, 2016 at 12:53 AM


Visibility: 10 mi

Pressure: 29.90 "Hg (27.46 "Hg at 715m altitude)

Humidity: 51%

Dew Point: 39 °F

Location of PullmanLocation

Past Weather in Pullman — Graph

°F

Pullman Temperature Yesterday

Maximum temperature yesterday: 76 °F (at 2:53 PM)
Minimum temperature yesterday: 49 °F (at 6:53 AM)
Average temperature yesterday: 62 °F

High & Low Weather Summary for the Past Weeks

 TemperatureHumidityPressure
High86 °F (Sep 26, 3:53 PM)90% (Sep 24, 7:53 AM)30.48 "Hg (Sep 24, 7:53 AM)
Low36 °F (Sep 21, 6:53 AM)18% (Sep 16, 3:53 PM)29.81 "Hg (Sep 30, 9:53 PM)
Average59 °F54%30.06 "Hg
* Reported Sep 15 11:53 PM — Sep 30 11:53 PM, Pullman, Weather by CustomWeather, © 2016

Note: Actual official high and low records may vary slightly from our data, if they occured in-between our weather recording intervals... More about our weather records

Advertising

Pullman Weather History for the Previous 24 Hours

Scroll right to see more
 ConditionsComfort  
Time TempWeatherWind HumidityBarometerVisibility
11:53 PM
Fri, Sep 30
58 °FClear.16 mph50%29.87 "Hg10 mi
10:53 PM62 °FMostly cloudy.17 mph46%29.87 "Hg9 mi
9:53 PM60 °FPassing clouds.7 mph49%29.81 "Hg10 mi
8:53 PM63 °FLight rain. Passing clouds.8 mph48%29.85 "Hg10 mi
7:53 PM64 °FPassing clouds.5 mph40%29.85 "Hg10 mi
6:53 PM66 °FPassing clouds.8 mph37%29.85 "Hg8 mi
5:53 PM71 °FPassing clouds.10 mph31%29.85 "Hg9 mi
4:53 PM74 °FSunny.7 mph28%29.86 "Hg10 mi
3:53 PM75 °FSunny.8 mph27%29.88 "Hg10 mi
2:53 PM76 °FSunny.5 mph30%29.90 "Hg10 mi
1:53 PM74 °FSunny.No wind33%29.91 "Hg9 mi
12:53 PM71 °FSunny.No wind36%29.94 "Hg10 mi
11:53 AM70 °FSunny.No wind35%29.96 "Hg9 mi
10:53 AM67 °FSunny.No wind41%29.97 "Hg9 mi
9:53 AM64 °FSunny.No wind47%29.98 "Hg10 mi
8:53 AM60 °FSunny.No wind58%29.98 "Hg9 mi
7:53 AM50 °FSunny.No wind86%30.00 "Hg9 mi
6:53 AM49 °FSunny.No wind86%30.01 "Hg9 mi
5:53 AM51 °FClear.No wind80%29.98 "Hg10 mi
4:53 AM54 °FPassing clouds.5 mph72%29.96 "Hg10 mi
3:53 AM52 °FPassing clouds.No wind83%29.99 "Hg10 mi
2:53 AM50 °FClear.No wind86%29.96 "Hg10 mi
1:53 AM56 °FClear.N/A72%29.95 "Hg10 mi
Weather by CustomWeather, © 2016

See weather overviewHow to use our weather pages